This is the latest recevied weather packets stored in our database for station/object NK0Z-13. If no packets are shown the sender has not sent any weather packets the latest 10 day(s).
| Time | Temp. | Humidity | Pressure | Rain* | Wind** | Luminosity | Snow |
|---|---|---|---|---|---|---|---|
| 1777565041 | 15° C | 57% | 1021.8 hPa | 0 mm | - | 575 W/m² | - |
| 1777564438 | 15° C | 58% | 1022 hPa | 0 mm | - | 479 W/m² | - |
| 1777563836 | 14.44° C | 61% | 1021.9 hPa | 0 mm | - | 373 W/m² | - |
| 1777563232 | 13.89° C | 63% | 1021.9 hPa | 0 mm | - | 312 W/m² | - |
| 1777562630 | 13.89° C | 65% | 1022.1 hPa | 0 mm | - | 278 W/m² | - |
| 1777562026 | 13.33° C | 66% | 1022.1 hPa | 0 mm | - | 219 W/m² | - |
| 1777561424 | 12.78° C | 67% | 1022.1 hPa | 0 mm | - | 215 W/m² | - |
| 1777560821 | 12.78° C | 69% | 1022.2 hPa | 0 mm | - | 219 W/m² | - |
| 1777560216 | 12.22° C | 71% | 1022.1 hPa | 0 mm | - | 196 W/m² | - |
| 1777559614 | 11.67° C | 74% | 1022.1 hPa | 0 mm | - | 194 W/m² | - |
| 1777559014 | 11.11° C | 76% | 1022.3 hPa | 0 mm | - | 125 W/m² | - |
| 1777558412 | 10.56° C | 76% | 1022 hPa | 0 mm | - | 92 W/m² | - |
| 1777557810 | 10.56° C | 77% | 1022.3 hPa | 0 mm | - | 83 W/m² | - |
| 1777557209 | 10° C | 78% | 1022.2 hPa | 0 mm | - | 63 W/m² | - |
| 1777556606 | 10° C | 79% | 1022.2 hPa | 0 mm | - | 60 W/m² | - |
| 1777556003 | 9.44° C | 80% | 1022.2 hPa | 0 mm | - | 69 W/m² | - |
| 1777555400 | 8.89° C | 82% | 1021.9 hPa | 0 mm | - | 97 W/m² | - |
| 1777554801 | 8.89° C | 84% | 1022.1 hPa | 0 mm | - | 117 W/m² | - |
| 1777554200 | 8.33° C | 87% | 1021.7 hPa | 0 mm | - | 113 W/m² | - |
| 1777553599 | 7.22° C | 89% | 1021.7 hPa | 0 mm | - | 116 W/m² | - |
| 1777552997 | 6.67° C | 92% | 1021.7 hPa | 0 mm | - | 66 W/m² | - |
| 1777552394 | 6.67° C | 94% | 1021.4 hPa | 0 mm | - | 46 W/m² | - |
| 1777551794 | 6.11° C | 95% | 1021.2 hPa | 0 mm | - | 54 W/m² | - |
| 1777551193 | 5.56° C | 95% | 1021.2 hPa | 0 mm | - | 38 W/m² | - |
| 1777550593 | 5° C | 95% | 1021.1 hPa | 0 mm | - | 24 W/m² | - |
* Rain latest hour (hover to see other rain measurements)
** Current wind speed in m/s (hover to see current wind gust speed)